Regional Weather Roundup
Issued by NWS

Home | Current Version | Previous Version | Graphics & Text | Print | Product List | Glossary On
Versions: 1 2 3 4 5 6 7 8 9 10 11 12 13 14 15 16 17 18 19 20 21 22 23 24 25 26 27 28 29 30 31 32 33 34 35 36 37 38 39 40 41 42 43 44 45 46 47 48 49 50
000
ASUS43 KIND 270859
RWRIN

WEATHER ROUNDUP FOR INDIANA
NATIONAL WEATHER SERVICE INDIANAPOLIS IN
500 AM EDT MON APR 27 2015

NOTE: "FAIR" INDICATES FEW OR NO CLOUDS BELOW 12,000 FEET WITH NO
SIGNIFICANT WEATHER AND/OR OBSTRUCTIONS TO VISIBILITY.

* - STATION DOES NOT REPORT WEATHER SUCH AS PRECIPITATION OR FOG.

+ - STATION NOT QUALITY CONTROLLED BY THE NATIONAL WEATHER SERVICE.
    USE DATA WITH CAUTION...ESPECIALLY DEWPOINT AND RELATIVE
    HUMIDITY OBSERVATIONS.

INZ001>003-010>013-019-020-271000-
NORTHWEST INDIANA

CITY           SKY/WX    TMP DP  RH WIND       PRES   REMARKS
GARY /AIRPORT/ CLEAR     42  32  66 N14       30.05F
KNOX *+        CLEAR     36  30  80 N10       30.00S

$$

LMZ046-743>745-271000-
SOUTHERN LAKE MICHIGAN

STATION/POSITION TIME  TEMP    WIND        PRES    WAVE
                       AIR SEA DIR/SP/G            HT
                 (UTC) (F)     (DEG/KT/KT) (MB)    (FT)
BURNS HARBOR     0800   42     360/ 17/ 21 1017.3R
MICHIGAN CITY    0800   40     340/ 20/ 22   N/A
5NW MICH CITY    0800   40 45  350/ 16/ 19   N/A     4

$$

INZ004-005-014>016-021>024-271000-
NORTH CENTRAL INDIANA

CITY           SKY/WX    TMP DP  RH WIND       PRES   REMARKS
GOSHEN         CLEAR     37  30  75 N8        29.97R
SOUTH BEND     CLEAR     38  32  79 N9        30.01R
WARSAW +       CLEAR     37  30  75 NW8       29.96R

$$

INZ006>009-017-018-025>027-271000-
NORTHEAST INDIANA

CITY           SKY/WX    TMP DP  RH WIND       PRES   REMARKS
ANGOLA *+      CLEAR     37  30  75 N3        29.95R
FORT WAYNE     CLEAR     38  31  76 NW7       29.94R

$$

INZ028-029-035-036-043>045-051>053-271000-
WEST CENTRAL INDIANA

CITY           SKY/WX    TMP DP  RH WIND       PRES   REMARKS
CRAWFORDSVL +  CLEAR     35  26  71 NW7       29.97F WCI  29
GREENCASTLE +  CLEAR     37  27  65 N7        29.97S
LAFAYETTE      CLEAR     35  31  85 N7        29.98F WCI  29
TERRE HAUTE    CLEAR     39  30  70 NW6       29.99S

$$

INZ030>032-037>040-046>048-054>057-064-065-271000-
CENTRAL INDIANA

CITY           SKY/WX    TMP DP  RH WIND       PRES   REMARKS
FRANKFORT +    CLEAR     37  32  84 NW9       29.98S
GREENWOOD *+   CLEAR     37  27  65 NW3       29.95F
INDIANAPOLIS   CLEAR     38  29  70 N9        29.94S
-EAGLE CREEK   CLEAR     39  30  70 N9        29.94F
KOKOMO *+      CLEAR     36  28  75 NW9       29.96S
MT COMFORT *+  CLEAR     36  23  60 NW3       29.94F
SHELBYVILLE    CLEAR     40  31  70 N9        29.93F

$$

INZ033-034-041-042-049-050-058-059-271000-
EAST CENTRAL INDIANA

CITY           SKY/WX    TMP DP  RH WIND       PRES   REMARKS
MUNCIE         CLEAR     38  31  76 W5        29.93F

$$

INZ060-061-067>069-081>083-085>088-271000-
SOUTHWEST INDIANA

CITY           SKY/WX    TMP DP  RH WIND       PRES   REMARKS
EVANSVILLE     CLEAR     45  33  63 N6        29.98F
HUNTINGBURG *+ CLEAR     43  32  65 N5        29.97F

$$

INZ062-063-066-070>080-084-089>092-271000-
SOUTH CENTRAL AND SOUTHEAST INDIANA

CITY           SKY/WX    TMP DP  RH WIND       PRES   REMARKS
BLOOMINGTON    CLEAR     39  29  67 N5        29.95F
MADISON *+     PTCLDY    43  34  70 CALM      29.95S
SEYMOUR +      CLEAR     39  32  75 CALM      29.95R

$$



USA.gov is the U.S. government's official web portal to all federal, state and local government web resources and services.